Time,TemperatureF,DewpointF,PressureIn,WindDirection,WindDirectionDegrees,WindSpeedMPH,WindSpeedGustMPH,Humidity,HourlyPrecipIn,Conditions,Clouds,dailyrainin,SolarRadiationWatts/m^2,SoftwareType,DateUTC
2013-04-13 00:05:00,52.8,49.0,29.93,SSE,162,11.0,12.0,87,0.00,,,0.00,0,Wunderground v.1.15,2013-04-13 07:05:00,
2013-04-13 00:15:00,53.0,49.5,29.93,SSE,164,13.0,14.0,88,0.00,,,0.00,0,Wunderground v.1.15,2013-04-13 07:15:00,
2013-04-13 00:25:00,52.7,49.2,29.92,SSE,168,14.0,17.0,88,0.00,,,0.00,0,Wunderground v.1.15,2013-04-13 07:25:00,
2013-04-13 00:30:00,52.6,48.8,29.92,SSE,168,15.0,15.0,87,0.00,,,0.00,0,Wunderground v.1.15,2013-04-13 07:30:00,
2013-04-13 00:45:00,52.8,49.0,29.93,South,175,12.0,13.0,87,0.00,,,0.00,0,Wunderground v.1.15,2013-04-13 07:45:00,
2013-04-13 00:50:00,52.5,48.7,29.93,South,173,12.0,13.0,87,0.00,,,0.00,0,Wunderground v.1.15,2013-04-13 07:50:00,
2013-04-13 01:00:00,52.7,49.2,29.93,South,183,14.0,17.0,88,0.00,,,0.00,0,Wunderground v.1.15,2013-04-13 08:00:00,
2013-04-13 01:05:00,52.4,48.6,29.93,SSW,213,15.0,17.0,87,0.00,,,0.00,0,Wunderground v.1.15,2013-04-13 08:05:00,
2013-04-13 01:10:00,52.7,49.2,29.93,South,169,15.0,15.0,88,0.00,,,0.00,0,Wunderground v.1.15,2013-04-13 08:10:00,
2013-04-13 01:19:00,52.9,49.4,29.93,South,180,14.0,14.0,88,0.00,,,0.00,0,Wunderground v.1.15,2013-04-13 08:19:00,
2013-04-13 01:30:00,52.6,49.1,29.93,SSW,213,13.0,14.0,88,0.00,,,0.00,0,Wunderground v.1.15,2013-04-13 08:30:00,
2013-04-13 01:35:00,52.6,49.1,29.92,SSW,197,13.0,14.0,88,0.00,,,0.00,0,Wunderground v.1.15,2013-04-13 08:35:00,
2013-04-13 01:40:00,52.7,49.2,29.92,SSW,196,12.0,12.0,88,0.00,,,0.00,0,Wunderground v.1.15,2013-04-13 08:40:00,
2013-04-13 01:50:00,52.9,49.7,29.92,SSW,194,13.0,13.0,89,0.00,,,0.00,0,Wunderground v.1.15,2013-04-13 08:50:00,
2013-04-13 02:00:00,52.7,49.5,29.91,South,191,14.0,15.0,89,0.00,,,0.00,0,Wunderground v.1.15,2013-04-13 09:00:00,
2013-04-13 02:10:00,52.4,49.3,29.92,SSW,199,14.0,15.0,89,0.00,,,0.00,0,Wunderground v.1.15,2013-04-13 09:10:00,
2013-04-13 02:15:00,52.4,49.3,29.92,SSW,201,14.0,15.0,89,0.00,,,0.00,0,Wunderground v.1.15,2013-04-13 09:15:00,
2013-04-13 02:30:00,52.5,49.7,29.91,SSW,197,15.0,17.0,90,0.00,,,0.00,0,Wunderground v.1.15,2013-04-13 09:30:00,
2013-04-13 02:39:00,52.1,49.3,29.90,SSW,194,17.0,17.0,90,0.00,,,0.00,0,Wunderground v.1.15,2013-04-13 09:39:00,
2013-04-13 02:55:00,52.0,48.9,29.91,South,188,14.0,16.0,89,0.00,,,0.00,0,Wunderground v.1.15,2013-04-13 09:55:00,
2013-04-13 03:04:00,51.9,48.8,29.91,SSW,199,15.0,15.0,89,0.00,,,0.00,0,Wunderground v.1.15,2013-04-13 10:04:00,
2013-04-13 03:10:00,51.9,48.8,29.91,SSW,203,15.0,15.0,89,0.00,,,0.00,0,Wunderground v.1.15,2013-04-13 10:10:00,
2013-04-13 03:20:00,51.7,48.6,29.91,SSW,213,12.0,12.0,89,0.00,,,0.00,0,Wunderground v.1.15,2013-04-13 10:20:00,
2013-04-13 03:25:00,51.6,48.2,29.90,SSW,200,7.0,12.0,88,0.00,,,0.00,0,Wunderground v.1.15,2013-04-13 10:25:00,
2013-04-13 03:30:00,51.8,48.7,29.90,South,184,9.0,13.0,89,0.00,,,0.00,0,Wunderground v.1.15,2013-04-13 10:30:00,
2013-04-13 03:40:00,51.9,48.5,29.90,South,178,15.0,15.0,88,0.00,,,0.00,0,Wunderground v.1.15,2013-04-13 10:40:00,
2013-04-13 03:50:00,52.1,49.0,29.91,South,179,14.0,14.0,89,0.00,,,0.00,0,Wunderground v.1.15,2013-04-13 10:50:00,
2013-04-13 03:55:00,51.9,48.2,29.90,South,181,14.0,15.0,87,0.00,,,0.00,0,Wunderground v.1.15,2013-04-13 10:55:00,
2013-04-13 04:00:00,52.3,48.9,29.90,South,173,15.0,15.0,88,0.00,,,0.00,0,Wunderground v.1.15,2013-04-13 11:00:00,
2013-04-13 04:05:00,52.3,48.9,29.90,South,171,15.0,15.0,88,0.00,,,0.00,0,Wunderground v.1.15,2013-04-13 11:05:00,
2013-04-13 04:10:00,52.2,48.8,29.90,South,177,14.0,14.0,88,0.00,,,0.00,0,Wunderground v.1.15,2013-04-13 11:10:00,
2013-04-13 04:20:00,51.6,48.2,29.90,South,179,13.0,15.0,88,0.00,,,0.00,0,Wunderground v.1.15,2013-04-13 11:20:00,
2013-04-13 04:25:00,51.4,48.0,29.90,South,173,13.0,15.0,88,0.00,,,0.00,0,Wunderground v.1.15,2013-04-13 11:25:00,
2013-04-13 04:30:00,51.5,48.4,29.90,South,178,12.0,12.0,89,0.00,,,0.00,0,Wunderground v.1.15,2013-04-13 11:30:00,
2013-04-13 04:40:00,51.4,48.0,29.90,South,173,12.0,13.0,88,0.00,,,0.00,0,Wunderground v.1.15,2013-04-13 11:40:00,
2013-04-13 04:44:00,51.4,48.3,29.90,South,190,12.0,13.0,89,0.00,,,0.00,0,Wunderground v.1.15,2013-04-13 11:44:00,
2013-04-13 04:50:00,51.4,48.3,29.91,South,174,12.0,12.0,89,0.00,,,0.00,0,Wunderground v.1.15,2013-04-13 11:50:00,
2013-04-13 05:00:00,51.7,48.6,29.90,South,181,12.0,12.0,89,0.00,,,0.00,0,Wunderground v.1.15,2013-04-13 12:00:00,
2013-04-13 05:05:00,51.9,48.8,29.91,South,174,12.0,13.0,89,0.00,,,0.00,0,Wunderground v.1.15,2013-04-13 12:05:00,
2013-04-13 05:20:00,51.8,48.7,29.90,South,177,13.0,13.0,89,0.00,,,0.00,0,Wunderground v.1.15,2013-04-13 12:20:00,
2013-04-13 05:25:00,51.6,48.5,29.90,South,174,13.0,13.0,89,0.00,,,0.00,0,Wunderground v.1.15,2013-04-13 12:25:00,
2013-04-13 05:30:00,51.6,48.5,29.90,South,188,13.0,13.0,89,0.00,,,0.00,0,Wunderground v.1.15,2013-04-13 12:30:00,
2013-04-13 05:35:00,51.6,48.5,29.90,South,179,12.0,13.0,89,0.00,,,0.00,0,Wunderground v.1.15,2013-04-13 12:35:00,
2013-04-13 05:50:00,51.5,48.1,29.90,South,176,12.0,12.0,88,0.00,,,0.00,0,Wunderground v.1.15,2013-04-13 12:50:00,
2013-04-13 05:55:00,51.5,48.1,29.91,South,184,13.0,13.0,88,0.00,,,0.00,0,Wunderground v.1.15,2013-04-13 12:55:00,
2013-04-13 06:05:00,51.7,48.3,29.91,South,176,11.0,12.0,88,0.00,,,0.00,0,Wunderground v.1.15,2013-04-13 13:05:00,
2013-04-13 06:15:00,51.5,48.1,29.91,South,172,11.0,12.0,88,0.00,,,0.00,0,Wunderground v.1.15,2013-04-13 13:15:00,
2013-04-13 06:25:00,51.4,48.0,29.91,South,170,12.0,13.0,88,0.00,,,0.00,0,Wunderground v.1.15,2013-04-13 13:25:00,
2013-04-13 06:35:00,51.5,48.1,29.90,SSW,213,12.0,14.0,88,0.00,,,0.00,0,Wunderground v.1.15,2013-04-13 13:35:00,
2013-04-13 06:40:00,51.5,48.1,29.91,SSW,213,13.0,13.0,88,0.00,,,0.00,0,Wunderground v.1.15,2013-04-13 13:40:00,
2013-04-13 06:49:00,51.6,48.2,29.92,South,183,11.0,12.0,88,0.00,,,0.00,9,Wunderground v.1.15,2013-04-13 13:49:00,
2013-04-13 06:54:00,51.8,48.4,29.92,South,182,11.0,13.0,88,0.00,,,0.00,14,Wunderground v.1.15,2013-04-13 13:54:00,
2013-04-13 07:00:00,52.0,48.6,29.92,SSW,213,12.0,12.0,88,0.00,,,0.00,18,Wunderground v.1.15,2013-04-13 14:00:00,
2013-04-13 07:05:00,52.2,48.8,29.92,South,191,12.0,13.0,88,0.00,,,0.00,21,Wunderground v.1.15,2013-04-13 14:05:00,
2013-04-13 07:10:00,52.3,48.9,29.93,SSW,197,12.0,12.0,88,0.00,,,0.00,28,Wunderground v.1.15,2013-04-13 14:10:00,
2013-04-13 07:20:00,52.4,48.6,29.93,SSW,192,11.0,11.0,87,0.00,,,0.00,49,Wunderground v.1.15,2013-04-13 14:20:00,
2013-04-13 07:30:00,52.1,48.3,29.93,SSW,213,9.0,11.0,87,0.00,,,0.00,67,Wunderground v.1.15,2013-04-13 14:30:00,
2013-04-13 07:35:00,52.1,48.3,29.93,SSW,213,10.0,12.0,87,0.00,,,0.00,83,Wunderground v.1.15,2013-04-13 14:35:00,
2013-04-13 07:45:00,52.2,48.4,29.93,SSE,168,10.0,11.0,87,0.00,,,0.00,127,Wunderground v.1.15,2013-04-13 14:45:00,
2013-04-13 07:50:00,52.1,48.3,29.93,SSW,195,10.0,10.0,87,0.00,,,0.00,137,Wunderground v.1.15,2013-04-13 14:50:00,
2013-04-13 07:55:00,52.3,48.5,29.94,South,173,10.0,10.0,87,0.00,,,0.00,104,Wunderground v.1.15,2013-04-13 14:55:00,
2013-04-13 08:00:00,52.4,48.6,29.93,SSW,213,9.0,11.0,87,0.00,,,0.00,178,Wunderground v.1.15,2013-04-13 15:00:00,
2013-04-13 08:15:00,52.8,48.7,29.95,SSW,213,9.0,11.0,86,0.00,,,0.00,197,Wunderground v.1.15,2013-04-13 15:15:00,
2013-04-13 08:20:00,52.7,48.6,29.94,SSW,195,10.0,11.0,86,0.00,,,0.00,199,Wunderground v.1.15,2013-04-13 15:20:00,
2013-04-13 08:30:00,53.0,48.9,29.95,SSW,197,11.0,11.0,86,0.00,,,0.00,251,Wunderground v.1.15,2013-04-13 15:30:00,
2013-04-13 08:35:00,53.1,48.7,29.95,SSW,213,11.0,11.0,85,0.00,,,0.00,295,Wunderground v.1.15,2013-04-13 15:35:00,
2013-04-13 08:40:00,53.3,48.6,29.95,SSW,208,11.0,11.0,84,0.00,,,0.00,309,Wunderground v.1.15,2013-04-13 15:40:00,
2013-04-13 08:49:00,54.0,49.3,29.95,SW,229,9.0,9.0,84,0.00,,,0.00,274,Wunderground v.1.15,2013-04-13 15:49:00,
2013-04-13 08:55:00,54.3,49.2,29.95,SSW,213,6.0,9.0,83,0.00,,,0.00,322,Wunderground v.1.15,2013-04-13 15:55:00,
2013-04-13 09:00:00,54.6,49.2,29.95,WSW,239,4.0,4.0,82,0.00,,,0.00,338,Wunderground v.1.15,2013-04-13 16:00:00,
2013-04-13 09:05:00,54.8,49.4,29.95,SW,228,4.0,5.0,82,0.00,,,0.00,345,Wunderground v.1.15,2013-04-13 16:05:00,
2013-04-13 09:10:00,54.7,49.3,29.95,SSW,213,5.0,5.0,82,0.00,,,0.00,357,Wunderground v.1.15,2013-04-13 16:10:00,
2013-04-13 09:20:00,54.6,49.2,29.95,SSW,213,7.0,10.0,82,0.00,,,0.00,408,Wunderground v.1.15,2013-04-13 16:20:00,
2013-04-13 09:29:00,54.3,49.2,29.95,SSW,213,10.0,10.0,83,0.00,,,0.00,376,Wunderground v.1.15,2013-04-13 16:29:00,
2013-04-13 09:40:00,54.8,49.4,29.94,SSW,213,9.0,9.0,82,0.00,,,0.00,464,Wunderground v.1.15,2013-04-13 16:40:00,
2013-04-13 09:50:00,55.3,49.6,29.94,SSW,201,9.0,9.0,81,0.00,,,0.00,552,Wunderground v.1.15,2013-04-13 16:50:00,
2013-04-13 10:00:00,55.5,49.8,29.94,SSW,198,9.0,9.0,81,0.00,,,0.00,568,Wunderground v.1.15,2013-04-13 17:00:00,
2013-04-13 10:05:00,55.6,49.9,29.95,SSW,213,10.0,10.0,81,0.00,,,0.00,559,Wunderground v.1.15,2013-04-13 17:05:00,
2013-04-13 10:10:00,55.5,49.8,29.94,SSW,213,10.0,10.0,81,0.00,,,0.00,608,Wunderground v.1.15,2013-04-13 17:10:00,
2013-04-13 10:19:00,56.0,49.6,29.94,SSW,200,11.0,11.0,79,0.00,,,0.00,650,Wunderground v.1.15,2013-04-13 17:19:00,
2013-04-13 10:24:00,56.4,50.0,29.94,SSW,213,10.0,11.0,79,0.00,,,0.00,613,Wunderground v.1.15,2013-04-13 17:24:00,
2013-04-13 10:30:00,56.8,50.4,29.94,SSW,197,10.0,11.0,79,0.00,,,0.00,629,Wunderground v.1.15,2013-04-13 17:30:00,
2013-04-13 10:35:00,56.7,50.6,29.94,SSW,213,10.0,11.0,80,0.00,,,0.00,554,Wunderground v.1.15,2013-04-13 17:35:00,
2013-04-13 10:55:00,56.7,49.6,29.94,SSW,213,10.0,11.0,77,0.00,,,0.00,589,Wunderground v.1.15,2013-04-13 17:55:00,
2013-04-13 11:00:00,57.2,50.1,29.94,SSW,213,10.0,10.0,77,0.00,,,0.00,520,Wunderground v.1.15,2013-04-13 18:00:00,
2013-04-13 11:10:00,57.0,49.5,29.93,SSW,213,10.0,11.0,76,0.00,,,0.00,708,Wunderground v.1.15,2013-04-13 18:10:00,
2013-04-13 11:15:00,57.2,50.1,29.93,SSW,213,10.0,11.0,77,0.00,,,0.00,761,Wunderground v.1.15,2013-04-13 18:15:00,
2013-04-13 11:20:00,57.5,50.3,29.93,SSW,213,10.0,10.0,77,0.00,,,0.00,780,Wunderground v.1.15,2013-04-13 18:20:00,
2013-04-13 11:30:00,57.7,50.2,29.93,SSW,204,11.0,11.0,76,0.00,,,0.00,731,Wunderground v.1.15,2013-04-13 18:30:00,
2013-04-13 11:35:00,58.0,50.5,29.93,SSW,208,11.0,11.0,76,0.00,,,0.00,782,Wunderground v.1.15,2013-04-13 18:35:00,
2013-04-13 11:40:00,58.1,50.2,29.92,SSW,213,10.0,10.0,75,0.00,,,0.00,807,Wunderground v.1.15,2013-04-13 18:40:00,
2013-04-13 11:50:00,59.4,50.7,29.93,SSW,213,9.0,9.0,73,0.00,,,0.00,726,Wunderground v.1.15,2013-04-13 18:50:00,
2013-04-13 11:55:00,60.0,51.7,29.93,WSW,243,8.0,9.0,74,0.00,,,0.00,673,Wunderground v.1.15,2013-04-13 18:55:00,
2013-04-13 11:59:00,60.3,52.7,29.93,SW,230,7.0,7.0,76,0.00,,,0.00,729,Wunderground v.1.15,2013-04-13 18:59:00,
2013-04-13 12:05:00,60.4,52.8,29.93,WSW,239,6.0,7.0,76,0.00,,,0.00,715,Wunderground v.1.15,2013-04-13 19:05:00,
2013-04-13 12:09:00,60.4,52.8,29.92,WSW,242,6.0,8.0,76,0.00,,,0.00,751,Wunderground v.1.15,2013-04-13 19:09:00,
2013-04-13 12:15:00,60.3,52.7,29.92,SW,229,6.0,8.0,76,0.00,,,0.00,853,Wunderground v.1.15,2013-04-13 19:15:00,
2013-04-13 12:20:00,60.3,52.3,29.92,WSW,252,6.0,8.0,75,0.00,,,0.00,865,Wunderground v.1.15,2013-04-13 19:20:00,
2013-04-13 12:25:00,59.3,51.7,29.92,West,266,7.0,8.0,76,0.00,,,0.00,884,Wunderground v.1.15,2013-04-13 19:25:00,
2013-04-13 12:30:00,59.2,52.7,29.91,SSW,213,8.0,8.0,79,0.00,,,0.00,909,Wunderground v.1.15,2013-04-13 19:30:00,
2013-04-13 12:40:00,60.7,52.4,29.91,SSW,213,7.0,8.0,74,0.00,,,0.00,882,Wunderground v.1.15,2013-04-13 19:40:00,
2013-04-13 12:45:00,61.3,52.6,29.91,SSW,213,8.0,8.0,73,0.00,,,0.00,877,Wunderground v.1.15,2013-04-13 19:45:00,
2013-04-13 12:50:00,61.2,52.1,29.91,SSW,213,8.0,8.0,72,0.00,,,0.00,888,Wunderground v.1.15,2013-04-13 19:50:00,
2013-04-13 12:55:00,61.0,51.5,29.91,SSW,213,8.0,8.0,71,0.00,,,0.00,795,Wunderground v.1.15,2013-04-13 19:55:00,
2013-04-13 13:05:00,61.2,52.5,29.90,SSW,213,8.0,11.0,73,0.00,,,0.00,861,Wunderground v.1.15,2013-04-13 20:05:00,
2013-04-13 13:10:00,61.6,52.9,29.90,SSW,213,7.0,10.0,73,0.00,,,0.00,837,Wunderground v.1.15,2013-04-13 20:10:00,
2013-04-13 13:15:00,61.3,52.6,29.90,SSW,213,8.0,10.0,73,0.00,,,0.00,856,Wunderground v.1.15,2013-04-13 20:15:00,
2013-04-13 13:20:00,61.1,52.7,29.90,SW,233,8.0,9.0,74,0.00,,,0.00,853,Wunderground v.1.15,2013-04-13 20:20:00,
2013-04-13 13:25:00,60.9,52.9,29.90,SW,223,8.0,9.0,75,0.00,,,0.00,779,Wunderground v.1.15,2013-04-13 20:25:00,
2013-04-13 13:35:00,60.5,52.9,29.89,SW,231,8.0,10.0,76,0.00,,,0.00,919,Wunderground v.1.15,2013-04-13 20:35:00,
2013-04-13 13:40:00,60.9,52.6,29.88,SSW,213,8.0,11.0,74,0.00,,,0.00,902,Wunderground v.1.15,2013-04-13 20:40:00,
2013-04-13 13:45:00,61.1,53.1,29.88,SW,222,7.0,11.0,75,0.00,,,0.00,914,Wunderground v.1.15,2013-04-13 20:45:00,
2013-04-13 13:50:00,61.7,53.0,29.88,SW,228,7.0,7.0,73,0.00,,,0.00,872,Wunderground v.1.15,2013-04-13 20:50:00,
2013-04-13 13:55:00,61.9,52.8,29.88,SW,236,7.0,7.0,72,0.00,,,0.00,867,Wunderground v.1.15,2013-04-13 20:55:00,
2013-04-13 14:00:00,61.9,52.8,29.88,SSW,213,7.0,9.0,72,0.00,,,0.00,824,Wunderground v.1.15,2013-04-13 21:00:00,
2013-04-13 14:10:00,62.1,52.2,29.88,SSW,213,7.0,8.0,70,0.00,,,0.00,759,Wunderground v.1.15,2013-04-13 21:10:00,
2013-04-13 14:15:00,62.7,52.4,29.88,SSW,213,7.0,8.0,69,0.00,,,0.00,777,Wunderground v.1.15,2013-04-13 21:15:00,
2013-04-13 14:20:00,62.6,51.5,29.88,SSW,213,7.0,9.0,67,0.00,,,0.00,779,Wunderground v.1.15,2013-04-13 21:20:00,
2013-04-13 14:29:00,62.9,51.8,29.87,SW,218,7.0,7.0,67,0.00,,,0.00,775,Wunderground v.1.15,2013-04-13 21:29:00,
2013-04-13 14:34:00,63.3,50.9,29.87,West,259,6.0,7.0,64,0.00,,,0.00,803,Wunderground v.1.15,2013-04-13 21:34:00,
2013-04-13 14:40:00,64.1,49.5,29.87,North,357,5.0,8.0,59,0.00,,,0.00,717,Wunderground v.1.15,2013-04-13 21:40:00,
2013-04-13 14:45:00,65.4,48.3,29.87,NNW,330,7.0,11.0,54,0.00,,,0.00,814,Wunderground v.1.15,2013-04-13 21:45:00,
2013-04-13 14:50:00,66.6,48.4,29.87,NNW,341,11.0,11.0,52,0.00,,,0.00,796,Wunderground v.1.15,2013-04-13 21:50:00,
2013-04-13 15:00:00,67.7,47.3,29.86,NNW,332,12.0,14.0,48,0.00,,,0.00,844,Wunderground v.1.15,2013-04-13 22:00:00,
2013-04-13 15:05:00,67.7,46.7,29.86,NNW,345,13.0,14.0,47,0.00,,,0.00,847,Wunderground v.1.15,2013-04-13 22:05:00,
2013-04-13 15:10:00,68.0,47.0,29.87,NNW,331,13.0,13.0,47,0.00,,,0.00,740,Wunderground v.1.15,2013-04-13 22:10:00,
2013-04-13 15:15:00,67.5,46.6,29.86,NW,315,13.0,13.0,47,0.00,,,0.00,789,Wunderground v.1.15,2013-04-13 22:15:00,
2013-04-13 15:20:00,67.1,46.7,29.86,NNW,328,14.0,19.0,48,0.00,,,0.00,809,Wunderground v.1.15,2013-04-13 22:20:00,
2013-04-13 15:30:00,65.8,46.1,29.87,NNW,334,16.0,19.0,49,0.00,,,0.00,782,Wunderground v.1.15,2013-04-13 22:30:00,
2013-04-13 15:35:00,65.5,45.8,29.87,WNW,300,16.0,19.0,49,0.00,,,0.00,782,Wunderground v.1.15,2013-04-13 22:35:00,
2013-04-13 15:40:00,65.2,46.1,29.86,NW,320,16.0,16.0,50,0.00,,,0.00,726,Wunderground v.1.15,2013-04-13 22:40:00,
2013-04-13 15:45:00,64.5,46.5,29.86,NW,318,14.0,16.0,52,0.00,,,0.00,687,Wunderground v.1.15,2013-04-13 22:45:00,
2013-04-13 15:54:00,64.4,46.9,29.86,WSW,253,9.0,11.0,53,0.00,,,0.00,671,Wunderground v.1.15,2013-04-13 22:54:00,
2013-04-13 16:00:00,64.9,46.3,29.86,WNW,299,8.0,10.0,51,0.00,,,0.00,707,Wunderground v.1.15,2013-04-13 23:00:00,
2013-04-13 16:05:00,64.4,48.4,29.86,SSW,213,9.0,10.0,56,0.00,,,0.00,703,Wunderground v.1.15,2013-04-13 23:05:00,
2013-04-13 16:15:00,64.8,46.8,29.86,NNW,328,10.0,10.0,52,0.00,,,0.00,691,Wunderground v.1.15,2013-04-13 23:15:00,
2013-04-13 16:20:00,65.6,45.9,29.86,SSW,213,11.0,11.0,49,0.00,,,0.00,671,Wunderground v.1.15,2013-04-13 23:20:00,
2013-04-13 16:25:00,65.2,45.5,29.85,WNW,295,11.0,11.0,49,0.00,,,0.00,619,Wunderground v.1.15,2013-04-13 23:25:00,
2013-04-13 16:34:00,65.0,45.9,29.85,NW,326,10.0,14.0,50,0.00,,,0.00,656,Wunderground v.1.15,2013-04-13 23:34:00,
2013-04-13 16:40:00,65.4,45.7,29.85,NW,324,10.0,15.0,49,0.00,,,0.00,635,Wunderground v.1.15,2013-04-13 23:40:00,
2013-04-13 16:45:00,65.4,45.7,29.85,NW,322,9.0,15.0,49,0.00,,,0.00,610,Wunderground v.1.15,2013-04-13 23:45:00,
2013-04-13 16:50:00,65.5,45.3,29.85,SSW,213,10.0,10.0,48,0.00,,,0.00,577,Wunderground v.1.15,2013-04-13 23:50:00,
2013-04-13 16:55:00,65.4,45.7,29.84,NW,322,12.0,12.0,49,0.00,,,0.00,475,Wunderground v.1.15,2013-04-13 23:55:00,
2013-04-13 17:04:00,64.4,45.3,29.84,NW,321,15.0,19.0,50,0.00,,,0.00,378,Wunderground v.1.15,2013-04-14 00:04:00,
2013-04-13 17:10:00,64.2,45.7,29.84,NNW,333,14.0,14.0,51,0.00,,,0.00,568,Wunderground v.1.15,2013-04-14 00:10:00,
2013-04-13 17:15:00,64.5,46.0,29.84,NW,311,14.0,14.0,51,0.00,,,0.00,471,Wunderground v.1.15,2013-04-14 00:15:00,
2013-04-13 17:20:00,64.5,45.4,29.85,WNW,299,13.0,13.0,50,0.00,,,0.00,520,Wunderground v.1.15,2013-04-14 00:20:00,
2013-04-13 17:25:00,64.4,45.3,29.85,NNW,334,11.0,13.0,50,0.00,,,0.00,504,Wunderground v.1.15,2013-04-14 00:25:00,
2013-04-13 17:34:00,64.1,45.6,29.85,NW,320,8.0,13.0,51,0.00,,,0.00,455,Wunderground v.1.15,2013-04-14 00:34:00,
2013-04-13 17:40:00,64.7,45.6,29.85,NNW,335,6.0,9.0,50,0.00,,,0.00,424,Wunderground v.1.15,2013-04-14 00:40:00,
2013-04-13 17:45:00,65.2,46.1,29.85,NNW,336,6.0,10.0,50,0.00,,,0.00,362,Wunderground v.1.15,2013-04-14 00:45:00,
2013-04-13 17:50:00,64.7,45.1,29.85,NW,318,8.0,12.0,49,0.00,,,0.00,352,Wunderground v.1.15,2013-04-14 00:50:00,
2013-04-13 18:00:00,63.8,44.8,29.85,SSW,213,11.0,11.0,50,0.00,,,0.00,353,Wunderground v.1.15,2013-04-14 01:00:00,
2013-04-13 18:05:00,63.9,45.4,29.85,WNW,299,9.0,11.0,51,0.00,,,0.00,323,Wunderground v.1.15,2013-04-14 01:05:00,
2013-04-13 18:10:00,63.7,45.7,29.86,SSW,213,9.0,10.0,52,0.00,,,0.00,267,Wunderground v.1.15,2013-04-14 01:10:00,
2013-04-13 18:15:00,62.1,48.5,29.86,WSW,258,11.0,11.0,61,0.00,,,0.00,248,Wunderground v.1.15,2013-04-14 01:15:00,
2013-04-13 18:20:00,61.1,48.8,29.86,West,265,10.0,10.0,64,0.00,,,0.00,199,Wunderground v.1.15,2013-04-14 01:20:00,
2013-04-13 18:30:00,61.2,48.9,29.86,SSW,213,4.0,4.0,64,0.00,,,0.00,130,Wunderground v.1.15,2013-04-14 01:30:00,
2013-04-13 18:35:00,61.1,48.4,29.87,WSW,251,2.0,4.0,63,0.00,,,0.00,135,Wunderground v.1.15,2013-04-14 01:35:00,
2013-04-13 18:40:00,61.1,48.0,29.87,WSW,255,2.0,2.0,62,0.00,,,0.00,134,Wunderground v.1.15,2013-04-14 01:40:00,
2013-04-13 18:49:00,60.7,45.8,29.87,NW,317,8.0,8.0,58,0.00,,,0.00,130,Wunderground v.1.15,2013-04-14 01:49:00,
2013-04-13 18:55:00,60.6,45.7,29.87,NNW,328,8.0,8.0,58,0.00,,,0.00,113,Wunderground v.1.15,2013-04-14 01:55:00,
2013-04-13 19:00:00,60.8,45.5,29.87,NW,312,7.0,11.0,57,0.00,,,0.00,86,Wunderground v.1.15,2013-04-14 02:00:00,
2013-04-13 19:09:00,60.3,45.0,29.87,SSW,213,9.0,9.0,57,0.00,,,0.00,54,Wunderground v.1.15,2013-04-14 02:09:00,
2013-04-13 19:15:00,59.9,44.6,29.87,NW,305,7.0,9.0,57,0.00,,,0.00,42,Wunderground v.1.15,2013-04-14 02:15:00,
2013-04-13 19:20:00,59.6,45.2,29.87,NW,326,7.0,7.0,59,0.00,,,0.00,35,Wunderground v.1.15,2013-04-14 02:20:00,
2013-04-13 19:25:00,59.2,45.3,29.87,NW,323,6.0,7.0,60,0.00,,,0.00,26,Wunderground v.1.15,2013-04-14 02:25:00,
2013-04-13 19:30:00,58.9,44.6,29.88,NW,314,5.0,8.0,59,0.00,,,0.00,19,Wunderground v.1.15,2013-04-14 02:30:00,
2013-04-13 19:40:00,58.3,44.5,29.88,NW,326,6.0,8.0,60,0.00,,,0.00,9,Wunderground v.1.15,2013-04-14 02:40:00,
2013-04-13 19:45:00,57.8,44.4,29.88,NW,319,7.0,8.0,61,0.00,,,0.00,5,Wunderground v.1.15,2013-04-14 02:45:00,
2013-04-13 19:50:00,57.4,44.5,29.88,NW,323,7.0,10.0,62,0.00,,,0.00,5,Wunderground v.1.15,2013-04-14 02:50:00,
2013-04-13 19:55:00,57.2,44.7,29.88,NNW,346,8.0,10.0,63,0.00,,,0.00,0,Wunderground v.1.15,2013-04-14 02:55:00,
2013-04-13 20:00:00,56.8,44.3,29.88,NNW,341,9.0,13.0,63,0.00,,,0.00,0,Wunderground v.1.15,2013-04-14 03:00:00,
2013-04-13 20:10:00,56.5,44.0,29.88,NW,322,11.0,13.0,63,0.00,,,0.00,0,Wunderground v.1.15,2013-04-14 03:10:00,
2013-04-13 20:15:00,56.3,43.0,29.88,NNW,329,12.0,13.0,61,0.00,,,0.00,0,Wunderground v.1.15,2013-04-14 03:15:00,
2013-04-13 20:20:00,56.0,42.7,29.88,NW,320,13.0,15.0,61,0.00,,,0.00,0,Wunderground v.1.15,2013-04-14 03:20:00,
2013-04-13 20:30:00,55.6,42.4,29.89,NNW,343,14.0,15.0,61,0.00,,,0.00,0,Wunderground v.1.15,2013-04-14 03:30:00,
2013-04-13 20:39:00,55.6,42.4,29.89,NNW,341,15.0,18.0,61,0.00,,,0.00,0,Wunderground v.1.15,2013-04-14 03:39:00,
2013-04-13 20:44:00,55.6,42.4,29.89,NNW,333,13.0,18.0,61,0.00,,,0.00,0,Wunderground v.1.15,2013-04-14 03:44:00,
2013-04-13 20:50:00,55.7,42.0,29.90,NNW,338,14.0,16.0,60,0.00,,,0.00,0,Wunderground v.1.15,2013-04-14 03:50:00,
2013-04-13 20:55:00,55.6,42.4,29.90,NNW,343,15.0,16.0,61,0.00,,,0.00,0,Wunderground v.1.15,2013-04-14 03:55:00,
2013-04-13 21:05:00,55.5,42.3,29.91,North,349,13.0,13.0,61,0.00,,,0.00,0,Wunderground v.1.15,2013-04-14 04:05:00,
2013-04-13 21:10:00,55.4,42.6,29.91,NNW,327,14.0,14.0,62,0.00,,,0.00,0,Wunderground v.1.15,2013-04-14 04:10:00,
2013-04-13 21:15:00,55.4,43.0,29.91,NNW,332,13.0,14.0,63,0.00,,,0.00,0,Wunderground v.1.15,2013-04-14 04:15:00,
2013-04-13 21:24:00,55.4,42.6,29.91,NNW,328,12.0,14.0,62,0.00,,,0.00,0,Wunderground v.1.15,2013-04-14 04:24:00,
2013-04-13 21:30:00,55.5,42.7,29.91,NNW,339,12.0,12.0,62,0.00,,,0.00,0,Wunderground v.1.15,2013-04-14 04:30:00,
2013-04-13 21:35:00,55.5,42.7,29.92,NW,322,12.0,12.0,62,0.00,,,0.00,0,Wunderground v.1.15,2013-04-14 04:35:00,
2013-04-13 21:40:00,55.5,42.7,29.92,NNW,334,10.0,10.0,62,0.00,,,0.00,0,Wunderground v.1.15,2013-04-14 04:40:00,
2013-04-13 21:45:00,55.6,42.4,29.92,NNW,328,8.0,12.0,61,0.00,,,0.00,0,Wunderground v.1.15,2013-04-14 04:45:00,
2013-04-13 21:50:00,55.6,42.4,29.92,NW,316,8.0,8.0,61,0.00,,,0.00,0,Wunderground v.1.15,2013-04-14 04:50:00,
2013-04-13 21:55:00,55.5,42.7,29.93,NW,319,7.0,9.0,62,0.00,,,0.00,0,Wunderground v.1.15,2013-04-14 04:55:00,
2013-04-13 22:00:00,55.2,43.2,29.93,NW,309,6.0,6.0,64,0.00,,,0.00,0,Wunderground v.1.15,2013-04-14 05:00:00,
2013-04-13 22:10:00,54.9,42.9,29.93,NW,316,4.0,4.0,64,0.00,,,0.00,0,Wunderground v.1.15,2013-04-14 05:10:00,
2013-04-13 22:15:00,54.8,42.9,29.93,NW,319,5.0,5.0,64,0.00,,,0.00,0,Wunderground v.1.15,2013-04-14 05:15:00,
2013-04-13 22:20:00,54.6,43.1,29.93,NW,314,6.0,6.0,65,0.00,,,0.00,0,Wunderground v.1.15,2013-04-14 05:20:00,
2013-04-13 22:25:00,54.5,42.6,29.93,NW,318,7.0,9.0,64,0.00,,,0.00,0,Wunderground v.1.15,2013-04-14 05:25:00,
2013-04-13 22:34:00,54.5,43.0,29.93,NW,326,6.0,9.0,65,0.00,,,0.00,0,Wunderground v.1.15,2013-04-14 05:34:00,
2013-04-13 22:40:00,54.5,43.0,29.93,NNW,329,5.0,7.0,65,0.00,,,0.00,0,Wunderground v.1.15,2013-04-14 05:40:00,
2013-04-13 22:45:00,54.6,42.7,29.93,NNW,336,7.0,7.0,64,0.00,,,0.00,0,Wunderground v.1.15,2013-04-14 05:45:00,
2013-04-13 22:50:00,54.6,42.7,29.93,NW,322,7.0,7.0,64,0.00,,,0.00,0,Wunderground v.1.15,2013-04-14 05:50:00,
2013-04-13 22:55:00,54.6,42.7,29.93,NW,314,6.0,8.0,64,0.00,,,0.00,0,Wunderground v.1.15,2013-04-14 05:55:00,
2013-04-13 23:05:00,54.7,42.8,29.93,NW,308,7.0,7.0,64,0.00,,,0.00,0,Wunderground v.1.15,2013-04-14 06:05:00,
2013-04-13 23:15:00,54.9,42.9,29.94,NW,318,7.0,8.0,64,0.00,,,0.00,0,Wunderground v.1.15,2013-04-14 06:15:00,
2013-04-13 23:20:00,54.8,42.9,29.94,WNW,299,6.0,6.0,64,0.00,,,0.00,0,Wunderground v.1.15,2013-04-14 06:20:00,
2013-04-13 23:25:00,54.8,43.3,29.94,WNW,303,5.0,6.0,65,0.00,,,0.00,0,Wunderground v.1.15,2013-04-14 06:25:00,
2013-04-13 23:35:00,54.6,42.3,29.94,NW,326,7.0,7.0,63,0.00,,,0.00,0,Wunderground v.1.15,2013-04-14 06:35:00,
2013-04-13 23:40:00,54.4,42.1,29.94,NNW,336,8.0,9.0,63,0.00,,,0.00,0,Wunderground v.1.15,2013-04-14 06:40:00,
2013-04-13 23:45:00,54.2,41.9,29.94,NNW,331,8.0,9.0,63,0.00,,,0.00,0,Wunderground v.1.15,2013-04-14 06:45:00,
2013-04-13 23:50:00,54.2,41.9,29.94,NW,326,6.0,6.0,63,0.00,,,0.00,0,Wunderground v.1.15,2013-04-14 06:50:00,